Rawlins, WY

2:00 AM MDT on April 26, 2018 (GMT -0600)
Rawlins Municipal

Weather History for KRWL - June, 2014

Change the Weather History Date:

Tuesday, June 17, 2014

  Actual Average Record
Temperature  
Mean Temperature 59 °F 60 °F  
Max Temperature 79 °F 76 °F 87 °F (1986)
Min Temperature 39 °F 44 °F 33 °F (1993)
Degree Days  
Heating Degree Days 6 6  
Month to date heating degree days 115 141  
Since 1 June heating degree days 115 141  
Since 1 July heating degree days 7945 8344  
Cooling Degree Days 0 1  
Month to date cooling degree days 3 1  
Year to date cooling degree days 5 1  
Since 1 June cooling degree days 3 1  
Growing Degree Days 8 (Base 50)    
Moisture  
Dew Point 27 °F    
Average Humidity 41    
Maximum Humidity 70    
Minimum Humidity 12    
Precipitation  
Precipitation T in 0.03 in 0.89 in (1998)
Month to date precipitation 0.22 0.66  
Year to date precipitation 2.73 4.58  
Sea Level Pressure  
Sea Level Pressure 29.64 in    
Wind  
Wind Speed 17 mph (WSW)    
Max Wind Speed 37 mph    
Max Gust Speed 53 mph    
Visibility 10 miles    
Events      
T = Trace of Precipitation, MM = Missing Value Source: NWS Daily Summary

Daily Weather History Graph

Daily Weather History Graph

Search for Another Location

Airport or City:

Astronomy

Jun. 17, 2014 Rise Set
Actual Time 5:33 AM MDT 8:46 PM MDT
Civil Twilight 4:59 AM MDT 9:20 PM MDT
Nautical Twilight 4:14 AM MDT 10:04 PM MDT
Astronomical Twilight 3:21 AM MDT 10:57 PM MDT
Moon No Moon Rise 10:55 AM MDT (6/17)
Length of Visible Light 16h 21m
Length of Day
15h 12m
Waning Gibbous, 73% of the Moon is Illuminated
Jun 17
Waning Gibbous
Jun 19
Last Quarter
Jun 27
New
Jul 5
First Quarter
Jul 12
Full

Hourly Weather History & Observations

Time (MDT) Temp. Windchill Dew Point Humidity Pressure Visibility Wind Dir Wind Speed Gust Speed Precip Events Conditions
12:53 AM 45.0 °F - 28.9 °F 53% 29.60 in 10.0 mi Calm Calm - N/A   Clear
1:53 AM 48.0 °F - 28.9 °F 48% 29.58 in 10.0 mi Calm Calm - N/A   Clear
2:53 AM 48.0 °F - 30.9 °F 52% 29.56 in 10.0 mi Calm Calm - N/A   Clear
3:53 AM 46.0 °F 44.8 °F 30.9 °F 56% 29.58 in 10.0 mi ENE 3.5 mph - N/A   Mostly Cloudy
4:53 AM 48.0 °F - 28.0 °F 46% 29.58 in 10.0 mi Calm Calm - N/A   Scattered Clouds
5:53 AM 48.9 °F - 24.1 °F 38% 29.59 in 10.0 mi SW 5.8 mph - N/A   Clear
6:53 AM 59.0 °F - 21.0 °F 23% 29.57 in 10.0 mi SSW 12.7 mph - N/A   Clear
7:53 AM 64.9 °F - 19.9 °F 18% 29.56 in 10.0 mi SSW 21.9 mph 28.8 mph N/A   Clear
8:28 AM 61.0 °F - 25.0 °F 25% 29.86 in 10.0 mi West 20.7 mph 29.9 mph N/A   Clear
8:53 AM 60.1 °F - 28.0 °F 30% 29.61 in 10.0 mi WSW 17.3 mph - N/A   Clear
9:53 AM 63.0 °F - 32.0 °F 31% 29.62 in 10.0 mi West 15.0 mph - N/A   Clear
10:53 AM 68.0 °F - 30.0 °F 24% 29.59 in 10.0 mi West 19.6 mph 25.3 mph N/A   Clear
11:53 AM 73.0 °F - 21.9 °F 15% 29.58 in 10.0 mi SW 25.3 mph 36.8 mph N/A   Clear
12:53 PM 75.9 °F - 19.9 °F 12% 29.57 in 10.0 mi SSW 31.1 mph 43.7 mph N/A   Partly Cloudy
1:53 PM 75.0 °F - 23.0 °F 14% 29.54 in 10.0 mi SSW 20.7 mph 34.5 mph N/A   Scattered Clouds
2:53 PM 75.0 °F - 23.0 °F 14% 29.52 in 10.0 mi South 27.6 mph 38.0 mph N/A   Scattered Clouds
3:53 PM 73.9 °F - 19.9 °F 13% 29.52 in 10.0 mi SSW 20.7 mph 44.9 mph N/A   Scattered Clouds
4:38 PM 70.0 °F - 28.9 °F 22% 29.77 in 10.0 mi West 26.5 mph 36.8 mph N/A   Mostly Cloudy
4:53 PM 71.1 °F - 32.0 °F 24% 29.55 in 10.0 mi WNW 26.5 mph 32.2 mph N/A   Mostly Cloudy
5:53 PM 68.0 °F - 32.0 °F 26% 29.59 in 10.0 mi WNW 20.7 mph 26.5 mph 0.00 in   Partly Cloudy
6:53 PM 55.9 °F - 30.9 °F 39% 29.62 in 10.0 mi WNW 25.3 mph 38.0 mph N/A   Clear
7:53 PM 53.1 °F - 32.0 °F 45% 29.67 in 10.0 mi WNW 19.6 mph 32.2 mph N/A   Partly Cloudy
8:53 PM 46.9 °F - 32.0 °F 56% 29.76 in 10.0 mi West 18.4 mph 26.5 mph N/A   Mostly Cloudy
9:53 PM 42.1 °F 32.6 °F 30.9 °F 65% 29.84 in 10.0 mi West 23.0 mph 32.2 mph N/A   Partly Cloudy
10:53 PM 41.0 °F 31.4 °F 30.0 °F 65% 29.86 in 10.0 mi West 21.9 mph 29.9 mph N/A   Clear
11:53 PM 39.9 °F 31.8 °F 30.9 °F 70% 29.87 in 10.0 mi West 15.0 mph 25.3 mph N/A   Scattered Clouds